Temperature
19 19 18 18 18 18 17 18 18 17 17 17 17 17 17 17 17 17 17 17 17 17 17 16 16 16 16 16 16 16 16 16 16 15 15 15 14 14 14 14 14 14 14
19 19 18 18 18 18 18 18 17 17 17 17 17 17 17 17 17 17 17 16 16 16 16 16 16 16 16 16 16 16 16 16 15 15 14 14 14 14 13 13 13 13 13
19 18 18 18 18 18 17 17 17 17 17 17 17 17 17 17 16 16 16 16 16 16 16 16 16 16 16 15 15 15 15 15 15 15 14 14 13 13 13 13 12 12 12
19 18 18 18 18 18 17 17 17 17 17 17 16 16 16 16 16 16 16 16 16 15 15 15 15 15 15 15 15 15 15 15 14 14 14 13 13 13 12 12 12 12 11
19 18 18 18 17 17 17 17 17 16 16 16 16 16 16 16 16 15 15 15 15 15 15 15 15 15 15 15 15 15 14 14 14 13 13 13 12 12 12 12 11 11 11
18 18 18 18 17 17 17 16 16 16 16 16 16 16 15 15 15 15 15 15 15 15 14 14 14 14 14 14 14 14 14 13 13 13 13 12 12 12 11 11 11 11 10
18 18 18 17 17 17 16 16 16 16 16 15 15 15 15 15 15 14 14 14 14 14 14 14 14 13 13 13 13 13 13 13 13 12 12 12 12 11 11 11 11 10 10
18 18 17 17 17 16 16 16 16 15 15 15 15 15 15 14 14 14 14 14 14 14 13 13 13 13 13 13 13 13 12 12 12 12 12 11 11 11 11 11 10 10 9
18 17 17 17 17 16 16 16 15 15 15 15 14 14 14 14 14 14 14 13 13 13 13 12 12 12 12 12 12 12 12 11 11 11 11 11 10 10 10 10 10 9 9
17 17 17 16 16 16 16 15 15 15 14 14 14 14 14 13 13 13 13 13 13 13 12 12 12 12 11 11 11 11 11 11 10 10 10 10 10 9 9 9 9 9 9
17 17 16 16 16 16 15 15 14 14 14 14 14 14 13 13 13 13 13 13 12 12 12 12 11 11 11 11 10 10 10 10 10 10 9 9 9 9 9 9 8 8 8
16 16 16 16 16 15 15 14 14 14 14 14 13 13 13 13 12 12 12 12 12 11 11 11 11 10 10 10 10 10 9 9 9 9 9 9 9 8 8 8 8 8 8
16 16 15 15 15 15 14 14 14 13 13 13 13 13 12 12 12 12 12 11 11 11 11 11 10 10 10 9 9 9 9 9 9 9 8 8 8 8 8 8 8 8 8
16 15 15 15 14 14 14 13 13 13 13 13 13 12 12 12 12 11 11 11 11 11 10 10 10 9 9 9 8 8 8 8 8 8 8 8 8 8 7 7 7 7 7
15 15 14 14 14 14 13 13 13 13 13 12 12 12 12 12 11 11 11 10 10 10 10 10 9 9 9 8 8 8 8 8 8 8 8 8 7 7 7 7 7 7 7
15 14 14 14 13 13 13 12 12 12 12 12 12 12 11 11 11 10 10 10 10 10 9 9 9 9 8 8 8 8 8 8 8 7 7 7 7 7 7 7 7 7 7
14 14 13 13 13 13 12 12 12 12 12 11 11 11 11 10 10 10 10 10 9 9 9 9 8 8 8 8 8 8 7 7 7 7 7 7 7 7 7 7 7 7 7
13 13 13 13 12 12 12 12 12 12 11 11 11 10 10 10 10 9 9 9 9 9 9 8 8 8 8 8 8 7 7 7 7 7 7 7 7 7 7 7 6 6 6
13 13 12 12 12 12 12 12 11 11 11 11 10 10 10 10 9 9 9 9 9 8 8 8 8 8 8 8 7 7 7 7 7 7 7 7 7 6 6 6 6 6 6
12 12 12 12 12 12 11 11 11 11 11 10 10 10 10 9 9 9 9 9 8 8 8 8 8 8 8 7 7 7 7 7 7 7 7 7 6 6 6 6 6 6 6
12 12 12 12 11 11 11 11 11 10 10 10 10 9 9 9 9 9 8 8 8 8 8 8 8 8 7 7 7 7 7 7 7 7 7 7 6 6 6 6 6 6 6
12 11 11 11 11 11 11 10 10 10 10 10 9 9 9 9 9 8 8 8 8 8 8 8 8 8 7 7 7 7 7 7 7 7 6 6 6 6 6 6 6 6 6
11 11 11 11 11 10 10 10 10 10 10 9 9 9 9 9 8 8 8 8 8 8 8 8 8 8 7 7 7 7 7 7 7 7 6 6 6 6 6 6 6 6 6
11 11 11 11 10 10 10 10 10 10 9 9 9 9 9 9 9 8 8 8 8 8 8 8 8 8 7 7 7 7 7 7 7 6 6 6 6 6 6 6 6 6 6
11 11 10 10 10 10 10 10 10 10 9 9 9 9 9 9 8 8 8 8 8 8 8 8 8 7 7 7 7 7 7 7 6 6 6 6 6 6 6 6 6 6 6
10 10 10 10 10 10 10 10 10 9 9 9 9 9 9 9 8 8 8 8 8 8 8 8 7 7 7 7 7 7 7 6 6 6 6 6 6 6 6 6 6 5 5
Wind_Speed
5 4 3 3 4 4 3 3 3 2 2 2 2 3 2 2 2 3 2 3 3 1 1 1 0 0 0 0 0 1 2 3 3 1 1 1 2 3 4 6 6 6 7
4 4 4 3 4 4 3 3 3 3 2 2 2 3 3 3 3 3 3 3 3 2 2 2 1 1 1 1 0 0 1 2 3 3 1 1 1 3 4 4 5 5 6
5 5 4 3 4 4 4 3 3 3 3 3 4 4 3 2 3 3 3 3 3 2 2 2 1 2 2 1 1 1 0 1 2 3 2 1 1 2 3 3 4 4 5
5 5 4 4 4 4 4 4 4 4 4 4 3 3 3 3 3 3 4 4 4 3 3 3 2 2 2 1 1 1 2 3 3 4 3 2 1 1 2 2 3 2 2
6 5 4 4 5 5 4 4 4 4 4 4 4 3 3 3 3 4 4 5 5 4 4 4 4 5 5 4 3 2 3 3 3 4 3 2 1 1 1 1 3 2 2
7 6 5 5 6 5 4 4 5 5 4 4 4 4 4 3 5 6 5 5 5 4 4 4 5 6 7 8 9 8 6 5 4 3 2 2 1 1 1 2 2 2 1
7 7 6 6 6 5 5 5 5 5 4 4 3 4 4 4 6 7 7 5 5 4 4 3 3 5 6 5 8 10 10 9 5 4 4 2 1 1 3 3 3 2 2
7 7 7 7 6 6 6 5 5 4 5 4 4 4 4 4 6 7 8 6 5 4 4 3 4 3 4 5 6 7 7 7 5 4 3 2 2 2 3 4 4 4 3
6 6 6 7 7 6 6 5 5 5 5 4 4 5 5 3 5 7 8 5 5 4 3 3 4 4 5 7 7 7 6 5 8 10 9 8 8 8 8 5 4 4 2
5 6 6 6 7 6 5 5 5 5 5 5 5 4 5 3 5 7 8 5 4 3 3 3 4 5 6 7 6 6 5 2 3 5 6 8 8 8 8 5 4 4 2
5 6 6 6 6 6 5 5 6 6 5 5 5 4 4 4 5 6 7 4 4 4 3 2 2 5 6 6 5 4 4 3 3 3 4 4 4 4 4 4 3 3 3
7 6 6 5 5 5 6 5 5 6 6 5 5 4 3 3 4 5 6 6 6 4 3 2 2 6 7 7 5 4 5 5 3 4 3 3 2 2 2 3 3 3 3
7 6 5 5 4 4 5 5 5 4 5 4 4 3 2 2 3 6 7 7 7 4 3 5 6 7 7 5 5 6 5 4 4 3 2 1 0 1 1 2 4 4 4
7 6 6 6 5 5 4 3 4 4 4 4 4 4 3 2 2 2 3 4 6 5 4 5 7 7 6 5 4 4 3 2 3 2 1 0 1 1 1 1 1 2 2
7 6 6 5 6 6 5 4 2 2 2 5 4 5 5 4 3 5 5 3 3 4 5 4 3 3 3 3 3 3 2 2 2 2 2 1 1 1 1 1 1 2 2
6 5 5 5 5 5 6 5 9 6 5 4 5 6 4 5 7 7 6 6 7 8 5 3 2 2 1 1 1 1 1 1 1 1 2 1 1 1 1 1 1 2 1
6 6 5 5 5 5 4 5 4 6 10 9 7 7 7 7 8 8 7 7 7 7 4 3 2 2 2 2 2 1 1 0 1 1 1 1 1 1 1 1 1 1 1
6 6 6 5 5 4 4 4 5 5 4 3 4 5 6 7 7 7 8 7 4 3 2 3 2 2 2 2 2 2 1 1 1 1 1 1 1 1 1 0 1 1 0
5 4 5 4 4 4 4 4 4 4 5 4 3 2 3 4 5 5 6 3 3 2 2 2 2 2 2 3 3 3 2 2 2 1 1 1 1 1 1 1 1 1 1
4 7 6 5 4 4 4 4 4 4 4 4 4 3 2 2 2 2 1 2 2 2 3 2 2 2 3 3 3 3 2 2 2 2 2 2 1 2 2 2 2 1 1
4 5 7 5 4 4 4 4 4 4 4 4 3 4 5 3 3 3 2 2 3 3 3 3 3 3 3 3 3 3 3 3 3 3 2 2 2 2 2 2 2 2 2
4 4 3 4 4 4 4 4 4 4 4 4 3 3 5 3 2 2 3 3 3 3 3 3 3 4 4 4 4 4 3 3 3 3 2 2 2 2 2 2 2 2 2
4 4 4 4 4 5 5 4 4 4 3 4 4 4 4 3 3 3 3 3 3 3 4 5 4 4 5 6 7 6 5 5 5 5 4 3 2 3 2 3 3 3 3
4 4 5 4 4 4 4 3 3 3 3 3 3 3 4 4 3 4 3 3 3 4 5 6 7 7 8 8 8 9 10 9 8 8 7 4 4 3 3 3 4 4 4
4 4 4 4 3 3 3 3 3 3 3 4 3 3 3 3 3 3 3 3 3 4 5 6 7 8 9 9 9 9 10 10 9 8 7 4 4 4 4 4 4 4 4
4 4 3 3 3 3 3 2 2 3 3 3 3 3 3 3 3 3 3 2 3 3 5 6 8 9 10 10 10 10 10 9 9 9 7 5 3 4 4 4 5 5 5
Wind_Direction
165 161 153 160 161 151 150 159 159 160 153 149 153 138 127 126 134 130 136 132 135 137 129 136 157 152 168 260 179 177 185 174 204 225 153 143 132 124 106 107 111 115 117
166 157 156 151 145 143 150 156 154 151 140 132 121 111 116 117 122 131 141 128 129 124 108 93 63 61 47 27 54 143 188 181 177 188 173 160 151 144 131 122 120 118 116
153 149 149 141 137 140 145 141 135 125 107 95 98 106 106 107 110 115 122 115 117 116 110 110 97 87 59 29 57 76 167 132 137 152 157 138 114 131 118 111 110 107 113
143 142 143 137 134 131 121 113 111 109 103 94 92 96 100 95 93 100 105 103 98 84 77 78 76 87 83 73 71 92 116 110 110 123 125 107 94 115 111 114 99 75 95
139 138 140 129 117 108 102 100 102 101 105 104 97 87 82 90 96 109 109 109 100 87 67 60 64 76 74 75 80 88 108 112 110 112 115 95 86 119 150 148 129 108 62
144 144 140 130 119 117 116 111 105 100 95 95 95 95 84 89 105 110 114 111 108 104 87 67 62 58 67 71 77 81 98 117 128 122 118 127 146 158 133 133 134 131 128
150 148 145 137 135 136 129 118 114 109 98 92 90 98 96 96 113 111 108 111 107 101 97 88 80 70 69 72 69 67 63 68 94 128 127 139 152 185 147 125 124 118 135
146 148 150 145 144 138 129 127 125 116 108 102 97 102 97 90 110 115 112 105 99 94 93 98 100 83 84 91 82 71 60 48 61 86 114 116 116 129 139 144 137 109 78
149 150 150 148 144 139 137 135 130 118 108 100 94 99 101 92 109 117 116 105 98 86 77 80 96 92 93 100 95 88 71 49 61 78 85 86 90 96 107 107 106 102 74
151 146 143 141 141 143 144 134 125 121 119 113 100 89 95 96 112 120 121 115 107 95 68 59 77 99 101 104 105 105 97 66 57 55 57 60 66 73 82 102 133 128 120
133 128 127 133 139 138 132 128 128 124 119 116 108 88 81 84 99 115 122 124 130 118 100 69 56 94 102 104 109 115 128 118 86 79 67 55 50 48 51 69 110 134 139
126 126 125 124 129 131 129 129 132 133 127 123 114 97 65 59 77 106 119 122 124 122 125 109 82 87 85 83 83 91 107 105 92 83 76 63 55 37 15 49 78 106 134
128 126 119 112 109 118 129 136 136 136 137 141 137 129 103 68 69 86 106 116 116 112 118 112 96 85 77 67 65 76 87 92 95 92 90 68 315 311 13 31 40 56 54
130 127 124 119 107 94 92 112 135 147 150 152 152 150 138 112 99 96 100 105 104 102 101 89 80 71 69 63 53 53 63 92 114 121 130 11 14 32 28 40 53 38 42
128 128 123 117 115 97 80 62 92 111 162 166 171 164 156 158 186 165 149 142 143 137 116 87 72 68 57 45 43 39 45 68 81 86 97 77 57 51 15 20 69 68 71
129 130 128 124 120 119 113 85 53 65 76 99 129 137 129 139 140 139 140 133 130 131 114 115 116 115 124 132 118 61 47 72 94 99 102 110 118 109 41 22 63 89 99
138 139 136 133 134 135 133 129 113 59 57 67 86 107 121 131 132 132 129 126 127 127 114 134 149 161 174 180 180 180 194 204 131 114 119 129 127 104 83 42 61 75 68
133 139 140 141 143 143 144 142 144 141 125 80 59 88 113 122 127 129 127 115 106 112 140 153 165 180 184 185 192 191 189 167 144 143 146 159 155 144 132 144 163 160 185
130 134 135 134 139 142 140 137 138 140 140 136 119 83 100 109 109 117 126 124 144 159 174 178 183 185 192 192 195 192 185 187 188 179 181 190 191 161 177 208 201 193 165
126 135 136 135 133 134 137 139 142 143 144 148 156 161 151 128 126 145 158 157 159 176 190 198 205 200 195 196 198 194 189 194 196 196 203 213 216 190 195 208 206 206 222
120 130 129 125 131 137 141 146 150 152 156 161 172 177 166 160 167 182 185 190 196 199 196 197 199 203 205 203 195 194 194 201 205 206 210 219 214 207 212 214 226 229 235
124 124 125 128 127 127 133 143 149 156 163 165 169 173 179 171 170 179 199 209 210 211 202 194 207 214 211 204 195 192 197 204 210 204 206 214 216 220 217 218 231 240 243
126 127 126 126 124 126 125 129 138 147 158 166 169 172 182 197 207 210 218 223 219 220 215 205 204 214 217 212 201 189 189 204 210 201 190 197 211 220 216 218 227 229 235
122 130 131 133 134 134 139 143 149 155 161 169 177 183 193 201 212 218 221 229 230 227 221 211 208 210 209 208 208 207 210 217 220 212 200 195 206 222 228 231 237 237 237
120 127 130 134 139 143 148 155 165 172 175 181 188 192 198 199 209 227 235 233 231 231 227 217 213 214 213 213 215 219 225 230 229 224 220 210 212 221 230 239 242 246 243
117 122 127 134 140 146 154 162 171 176 176 181 185 187 192 196 207 219 224 230 235 234 231 226 224 222 220 220 224 227 231 235 235 235 229 221 222 238 243 248 253 252 252
Height
1538 1538 1539 1540 1541 1542 1543 1544 1545 1546 1547 1548 1548 1549 1550 1550 1551 1552 1552 1553 1553 1553 1554 1554 1554 1554 1554 1554 1554 1554 1554 1554 1553 1553 1554 1554 1555 1555 1555 1555 1555 1555 1555
1538 1538 1539 1539 1540 1541 1542 1543 1544 1545 1546 1546 1547 1547 1548 1548 1548 1549 1549 1550 1550 1550 1551 1551 1551 1551 1550 1550 1550 1550 1550 1550 1550 1549 1550 1551 1552 1552 1552 1552 1552 1553 1553
1538 1538 1539 1539 1540 1540 1541 1542 1543 1544 1544 1545 1545 1545 1546 1546 1546 1547 1547 1547 1548 1548 1548 1548 1548 1548 1547 1547 1547 1547 1547 1547 1547 1546 1546 1548 1549 1549 1549 1550 1550 1550 1551
1537 1538 1538 1539 1539 1540 1540 1541 1542 1542 1543 1543 1543 1543 1544 1544 1545 1545 1545 1545 1545 1546 1546 1546 1545 1545 1545 1545 1544 1544 1544 1544 1544 1544 1544 1545 1546 1547 1547 1547 1548 1548 1549
1537 1537 1538 1538 1539 1539 1540 1540 1540 1541 1542 1542 1542 1542 1542 1542 1543 1543 1543 1544 1544 1544 1544 1544 1544 1544 1543 1543 1543 1542 1542 1542 1542 1542 1542 1543 1544 1544 1545 1545 1545 1546 1547
1536 1536 1537 1538 1538 1538 1539 1539 1540 1540 1540 1540 1540 1540 1540 1540 1541 1542 1542 1542 1542 1542 1542 1542 1543 1543 1543 1542 1542 1541 1541 1541 1541 1541 1541 1541 1542 1543 1543 1543 1544 1544 1544
1535 1536 1537 1537 1538 1538 1538 1539 1539 1539 1539 1539 1539 1539 1539 1539 1539 1540 1541 1541 1541 1541 1541 1542 1542 1542 1542 1542 1541 1541 1541 1540 1541 1541 1541 1541 1541 1541 1542 1542 1542 1543 1543
1534 1535 1536 1536 1537 1537 1538 1538 1539 1539 1539 1539 1538 1538 1538 1538 1538 1539 1540 1540 1541 1541 1541 1541 1542 1541 1541 1541 1541 1540 1540 1540 1540 1540 1540 1540 1540 1541 1541 1542 1542 1542 1543
1533 1534 1534 1535 1536 1536 1537 1538 1538 1538 1538 1538 1538 1537 1537 1537 1538 1538 1539 1540 1540 1541 1541 1541 1542 1541 1541 1541 1541 1540 1540 1540 1540 1540 1540 1540 1540 1540 1540 1541 1541 1542 1542
1531 1532 1533 1534 1535 1535 1536 1537 1537 1538 1538 1538 1538 1537 1537 1537 1538 1538 1539 1540 1540 1540 1541 1541 1541 1541 1541 1541 1541 1540 1540 1540 1541 1541 1540 1540 1540 1540 1540 1541 1541 1541 1542
1530 1531 1532 1533 1534 1535 1535 1536 1536 1537 1537 1537 1537 1537 1537 1538 1538 1539 1539 1540 1540 1540 1541 1541 1541 1541 1541 1541 1541 1541 1540 1541 1541 1541 1540 1540 1540 1540 1540 1541 1541 1541 1541
1529 1530 1531 1532 1533 1533 1534 1535 1535 1536 1536 1536 1536 1537 1537 1538 1538 1539 1539 1540 1540 1540 1541 1541 1541 1541 1541 1541 1541 1541 1541 1541 1541 1541 1541 1541 1541 1541 1541 1541 1541 1541 1541
1528 1529 1529 1530 1531 1532 1532 1533 1534 1534 1535 1535 1535 1536 1536 1537 1538 1538 1539 1540 1540 1540 1540 1540 1541 1541 1541 1541 1541 1541 1541 1541 1542 1542 1542 1542 1542 1542 1542 1542 1542 1542 1542
1527 1527 1528 1528 1529 1530 1531 1531 1532 1533 1534 1534 1534 1535 1535 1536 1537 1538 1538 1539 1540 1540 1540 1540 1541 1541 1541 1541 1541 1541 1541 1542 1542 1542 1543 1543 1543 1542 1542 1542 1542 1542 1542
1525 1526 1526 1527 1527 1528 1529 1530 1531 1532 1533 1533 1534 1534 1534 1535 1536 1537 1538 1539 1539 1540 1540 1540 1540 1541 1541 1541 1541 1541 1542 1542 1542 1542 1543 1543 1543 1543 1542 1542 1542 1542 1542
1524 1524 1525 1525 1526 1527 1528 1529 1530 1531 1532 1532 1533 1534 1534 1535 1536 1537 1538 1539 1539 1539 1540 1540 1540 1540 1541 1541 1541 1541 1542 1542 1542 1542 1542 1542 1542 1542 1542 1542 1542 1542 1542
1523 1524 1524 1525 1525 1526 1527 1528 1528 1530 1530 1531 1532 1533 1534 1534 1535 1536 1537 1538 1538 1539 1539 1539 1540 1540 1540 1541 1541 1541 1541 1542 1542 1542 1542 1542 1542 1542 1542 1542 1542 1542 1541
1523 1523 1523 1524 1525 1525 1526 1527 1528 1528 1529 1530 1531 1532 1533 1534 1535 1535 1536 1537 1537 1538 1538 1539 1539 1540 1540 1541 1541 1541 1541 1542 1542 1542 1542 1542 1542 1542 1542 1541 1541 1541 1541
1522 1522 1523 1524 1525 1525 1526 1527 1527 1528 1528 1529 1530 1531 1532 1533 1534 1535 1536 1536 1536 1537 1538 1538 1539 1539 1540 1540 1540 1541 1541 1541 1541 1541 1541 1541 1541 1541 1541 1541 1541 1541 1540
1521 1522 1523 1524 1524 1525 1525 1526 1527 1527 1528 1529 1530 1531 1532 1532 1533 1533 1534 1535 1536 1537 1537 1538 1538 1539 1539 1539 1540 1540 1540 1540 1540 1540 1540 1540 1540 1540 1540 1539 1539 1539 1539
1521 1521 1522 1523 1524 1524 1525 1526 1526 1527 1528 1529 1529 1531 1532 1532 1532 1533 1534 1535 1536 1536 1537 1537 1538 1538 1538 1538 1538 1538 1538 1538 1538 1538 1538 1538 1538 1538 1538 1538 1537 1537 1537
1521 1522 1522 1523 1524 1524 1525 1526 1526 1527 1528 1528 1529 1530 1531 1532 1532 1533 1534 1534 1535 1536 1536 1537 1537 1536 1536 1536 1537 1536 1536 1536 1536 1536 1536 1536 1536 1536 1536 1536 1535 1535 1534
1521 1522 1523 1523 1524 1525 1525 1526 1526 1527 1528 1529 1529 1530 1531 1532 1533 1533 1534 1534 1535 1535 1535 1535 1535 1535 1535 1535 1534 1534 1534 1534 1534 1534 1534 1533 1533 1533 1533 1532 1532 1531 1531
1521 1522 1523 1523 1524 1525 1526 1527 1527 1528 1529 1529 1529 1530 1531 1531 1532 1533 1533 1533 1533 1533 1533 1533 1533 1533 1532 1532 1532 1532 1532 1532 1531 1531 1531 1530 1530 1530 1529 1529 1528 1528 1527
1522 1522 1523 1524 1525 1525 1526 1527 1528 1528 1529 1529 1530 1530 1530 1531 1531 1532 1532 1532 1532 1532 1531 1531 1531 1530 1530 1529 1529 1529 1529 1528 1528 1528 1527 1527 1526 1526 1525 1525 1524 1524 1523
1522 1523 1523 1524 1525 1525 1526 1527 1527 1528 1528 1529 1529 1529 1530 1530 1530 1530 1530 1530 1530 1530 1529 1529 1528 1528 1527 1527 1526 1526 1525 1525 1524 1524 1523 1522 1522 1521 1521 1520 1520 1519 1518